Theta_e
304 304 304 304 304 304 305 305 304 304 304 304 304 305 305 305 306 305 305 305 305 305 305 306 306 307 304 292 291 299 310 307 313 309 302 296 292 290 288 290 290 289 292 298 300 299 305
304 304 305 303 304 304 304 304 304 304 304 304 304 304 304 304 305 305 305 305 305 305 306 306 306 307 299 286 298 299 299 299 307 305 302 297 295 293 291 291 288 291 294 295 297 296 306
305 305 303 305 303 303 303 303 303 303 303 303 304 304 304 304 304 305 305 306 306 307 308 308 307 304 296 291 299 297 299 295 297 305 298 300 297 293 291 289 295 293 289 292 295 292 302
303 303 303 304 303 303 303 303 304 304 303 303 303 303 303 304 304 305 306 307 307 308 309 309 307 303 293 303 301 299 300 296 298 297 301 300 298 293 291 292 291 290 288 286 291 293 302
302 303 303 303 303 303 303 303 303 303 303 303 303 303 303 304 306 306 307 308 308 309 308 308 302 299 291 304 300 302 300 295 297 297 300 303 296 290 290 284 283 285 281 284 287 293 296
302 302 303 302 302 303 303 303 303 302 303 303 303 303 303 304 306 306 307 308 307 306 307 306 304 294 296 294 301 303 299 299 296 298 297 295 289 285 283 282 280 280 282 283 287 290 299
302 302 302 302 302 303 303 303 302 302 302 303 303 303 304 305 306 307 302 294 291 290 293 289 291 294 296 300 301 298 299 296 295 291 288 290 283 281 285 286 286 286 286 286 287 293 299
302 302 302 302 302 302 303 303 302 302 302 302 303 303 304 305 306 307 296 292 293 294 286 294 294 293 296 296 290 293 298 291 290 284 287 284 284 286 289 288 288 287 286 285 290 294 302
301 301 301 301 302 302 302 302 302 302 302 302 303 303 304 305 306 296 292 294 299 297 286 290 298 295 294 295 289 289 294 290 287 285 285 283 285 291 289 287 286 286 285 286 288 295 303
301 301 301 301 301 301 301 301 302 302 302 302 303 303 305 305 296 293 292 299 298 300 282 287 292 294 295 293 288 294 297 293 287 285 286 285 290 289 287 287 289 284 289 290 289 289 287
300 300 301 301 301 300 300 301 301 301 302 302 304 304 305 304 292 290 296 297 299 297 264 288 289 298 295 289 290 291 295 292 287 288 288 285 287 286 286 288 290 287 292 290 290 288 287
300 300 301 300 300 300 300 300 301 301 302 303 304 304 305 296 291 294 296 297 294 275 264 284 289 287 288 291 292 295 291 293 292 288 287 287 289 288 288 290 291 293 290 290 289 288 281
300 300 300 300 299 300 300 300 301 301 302 303 304 304 301 297 290 295 296 291 276 267 285 280 283 286 287 286 289 290 289 285 282 279 280 283 287 289 291 286 289 290 286 280 279 279 279
300 300 300 299 299 299 300 300 300 302 303 304 304 301 297 298 296 294 292 282 268 280 281 285 285 286 284 286 286 288 288 285 288 284 280 279 277 285 290 288 284 286 287 281 277 277 280
299 300 299 299 299 299 300 300 301 302 303 304 300 291 292 293 294 294 285 269 271 281 284 282 283 282 282 284 285 286 288 285 286 287 281 279 280 288 290 291 290 285 284 290 285 285 281
299 299 299 299 299 299 299 300 301 302 303 302 288 288 290 294 293 288 279 277 280 284 284 284 278 282 278 280 280 283 286 287 285 288 289 287 279 287 289 291 291 289 291 284 285 278 277
299 299 299 298 299 299 299 300 301 302 303 300 286 284 291 292 290 283 270 277 282 284 284 282 279 279 278 278 279 283 282 287 285 287 289 288 285 283 287 286 285 286 286 288 288 284 279
299 299 299 298 299 299 299 299 301 301 302 293 283 276 292 289 278 276 273 281 285 282 284 282 283 282 278 279 278 282 279 282 288 286 283 287 286 280 283 289 290 287 286 286 281 277 281
299 298 298 298 298 298 298 299 301 301 301 287 280 278 287 286 270 271 279 279 282 281 281 280 279 281 281 278 276 280 280 285 286 284 284 286 283 279 280 284 286 284 286 287 286 285 282
298 298 298 298 298 298 298 299 301 301 300 285 279 271 277 279 279 277 277 277 277 283 281 281 281 281 279 277 281 277 277 282 284 285 289 289 287 282 278 281 284 282 285 287 286 280 281
298 298 298 297 297 298 298 299 300 300 299 284 277 273 277 270 276 277 278 278 276 275 281 281 279 279 278 275 276 276 278 279 282 286 283 285 281 284 286 289 289 286 284 286 284 285 282
297 298 298 297 297 297 298 299 300 300 296 284 275 276 281 277 279 277 278 276 276 277 278 276 276 278 278 276 276 274 277 277 277 282 280 284 280 283 281 288 289 285 287 286 287 287 286
297 297 297 297 296 297 297 298 299 300 293 281 282 282 281 278 276 275 275 277 276 279 280 280 278 277 277 278 280 280 281 281 281 278 278 279 280 280 280 285 287 282 287 288 288 288 287
297 297 297 297 296 296 297 297 298 299 294 284 282 282 273 273 276 276 278 279 277 279 277 279 280 277 281 284 282 281 281 281 281 280 282 278 278 280 279 283 275 287 291 292 288 287 288
297 297 297 297 296 296 296 296 297 298 299 286 285 287 281 275 277 278 278 278 279 280 278 279 281 283 284 280 276 275 274 278 279 281 281 282 280 279 277 279 284 286 286 286 287 284 289
297 297 297 297 296 296 296 296 296 297 299 287 286 291 281 278 273 279 278 278 276 276 277 279 284 285 283 279 275 269 268 275 277 281 284 282 282 280 279 276 274 280 285 290 290 282 288
298 297 297 296 296 296 295 296 296 297 298 292 286 290 287 280 280 280 276 276 280 279 277 278 280 281 283 277 272 272 274 278 273 274 275 279 277 274 277 277 279 284 286 290 283 281 290
298 297 297 296 296 296 295 295 296 296 297 293 286 287 288 282 281 282 284 280 279 277 275 277 276 277 276 274 273 274 273 276 276 278 276 275 274 275 278 275 273 287 287 283 285 289 291
298 297 297 296 296 296 295 295 296 296 297 296 288 289 294 286 280 284 286 287 285 284 278 276 275 276 275 274 276 277 274 276 276 272 282 274 278 277 276 276 286 288 287 290 291 291 291
Wind_Speed
12 13 13 15 15 17 17 18 18 18 19 21 22 23 24 25 25 25 25 25 24 22 20 18 16 13 7 6 14 13 25 15 6 10 15 15 7 7 8 6 5 5 4 14 15 3 6
13 14 14 14 16 16 17 17 18 19 19 20 22 23 24 25 26 26 26 26 26 23 20 17 14 11 5 19 8 10 9 8 7 10 12 10 9 5 6 5 10 8 15 13 7 6 7
13 13 15 14 14 16 17 17 18 19 20 21 22 23 24 25 26 27 27 27 26 23 21 16 12 8 15 26 9 7 15 8 6 7 7 13 4 8 6 2 8 8 5 12 19 6 6
14 14 14 16 16 16 16 17 17 19 20 21 23 24 24 25 25 26 27 26 26 25 20 15 11 8 13 9 10 14 14 12 12 11 10 8 7 3 3 3 5 8 5 11 7 11 9
13 14 14 14 16 17 18 19 19 21 22 22 23 24 25 25 25 25 26 25 23 10 4 8 5 5 14 8 5 11 14 9 5 7 7 7 5 5 3 3 3 4 5 8 5 9 6
14 15 17 17 17 18 18 19 21 22 22 23 24 25 25 25 24 25 24 20 11 3 5 5 3 3 8 5 6 13 6 9 4 6 4 7 5 5 3 7 16 5 5 5 13 7 6
14 15 16 16 17 18 20 21 22 23 24 25 26 26 25 25 25 23 12 6 8 6 7 6 14 12 27 18 13 8 9 4 6 5 8 6 8 18 24 12 3 7 5 7 5 6 8
16 17 17 18 20 21 21 22 22 23 25 25 26 27 26 25 25 17 5 5 2 7 12 10 19 21 27 13 14 18 2 7 7 6 6 4 21 13 8 9 8 5 5 5 5 7 6
16 17 18 19 20 21 22 22 23 24 25 26 26 27 25 25 21 5 2 1 4 4 4 11 9 8 9 7 8 14 8 4 5 6 7 11 5 17 8 12 13 13 12 4 2 7 7
16 17 18 19 21 22 23 22 24 25 26 27 26 25 22 22 5 4 5 6 7 3 3 7 4 5 3 4 7 9 9 4 2 14 5 8 7 15 7 12 14 17 10 7 7 2 6
16 17 19 20 21 23 23 24 25 26 27 28 27 25 20 7 3 3 7 5 8 1 5 17 8 8 22 4 9 4 3 4 7 3 8 8 10 6 14 14 10 6 10 10 8 3 4
16 18 20 21 23 23 24 24 25 27 28 28 27 26 18 2 0 7 6 7 3 7 6 9 10 19 18 9 8 14 5 4 6 5 3 8 2 8 8 6 8 9 4 6 3 4 3
17 18 20 22 24 24 24 25 26 29 30 29 27 23 8 2 5 4 5 3 5 6 8 12 15 19 13 17 8 13 7 3 6 6 6 2 9 4 2 5 4 6 9 2 2 1 10
17 19 20 23 24 25 25 26 27 29 29 30 27 13 3 3 6 5 3 5 8 4 5 13 11 14 6 18 8 15 9 7 10 5 4 6 5 7 2 9 7 11 11 7 7 9 10
17 19 21 23 24 25 26 27 29 29 29 28 17 4 4 9 9 2 6 7 5 5 10 10 10 5 5 14 11 11 7 9 9 13 3 5 9 4 6 7 12 6 9 7 5 1 5
17 20 21 23 24 26 27 28 30 30 30 23 3 3 10 18 7 5 7 3 5 14 12 6 7 6 7 10 11 10 7 10 11 8 10 6 3 5 4 6 8 8 8 6 2 6 5
17 19 20 23 24 26 28 29 30 31 30 16 5 5 13 20 5 8 4 4 6 16 14 9 7 6 9 8 12 4 10 5 16 13 10 4 3 5 3 5 9 4 4 4 6 4 6
17 19 20 23 23 25 27 29 30 32 30 9 3 6 10 8 9 3 4 8 11 15 12 9 10 9 10 11 7 6 9 6 15 15 10 5 4 3 8 5 5 4 8 6 6 5 1
16 18 20 22 23 25 27 29 30 30 25 2 4 2 6 7 5 5 6 10 7 13 15 12 11 8 13 6 7 9 11 13 14 13 12 8 4 3 2 5 3 3 4 6 7 4 5
15 17 19 21 22 24 26 28 29 32 26 5 4 6 6 6 0 2 4 10 14 10 8 14 7 7 10 8 6 7 15 8 21 13 16 8 4 3 2 1 3 2 5 4 8 5 6
14 16 17 20 21 22 24 27 28 30 26 6 5 1 3 5 8 7 5 9 12 14 5 11 6 12 9 5 8 9 9 12 14 4 11 5 4 6 9 8 5 2 6 8 5 7 8
13 15 16 18 20 21 22 25 26 29 17 7 4 4 4 3 4 4 8 9 13 13 7 12 12 14 9 6 4 15 14 7 7 8 10 6 5 4 4 10 3 7 8 8 9 6 6
11 13 15 16 18 19 20 21 23 25 13 4 2 2 2 4 5 4 3 7 12 14 5 10 13 12 10 8 15 18 17 14 16 9 7 5 5 7 3 8 5 8 12 8 10 12 4
10 12 13 14 17 18 18 18 20 22 10 3 1 2 4 4 3 4 7 10 13 11 11 13 8 6 10 19 16 12 16 17 16 16 11 7 7 4 4 4 5 5 14 15 18 14 15
8 10 12 13 15 16 17 16 17 19 19 4 1 2 2 4 4 6 11 8 10 8 8 7 12 10 13 8 4 6 5 3 5 9 13 12 3 3 3 3 7 7 12 9 8 9 15
6 8 10 11 13 14 15 15 15 16 18 4 2 2 1 3 5 4 8 5 5 8 7 5 10 8 5 3 3 2 2 5 3 2 4 8 4 3 4 1 3 4 12 12 10 3 16
4 5 8 9 11 13 14 14 15 15 16 3 3 1 1 2 5 2 3 3 4 5 6 6 11 8 7 6 4 4 5 9 6 5 4 3 2 3 1 2 5 12 19 13 1 5 15
4 4 5 7 9 11 13 14 14 13 15 7 4 1 1 2 6 2 3 4 4 2 3 6 6 5 5 8 5 4 4 6 4 3 5 4 2 3 2 5 3 15 6 5 6 6 11
4 3 3 6 7 9 12 13 13 13 14 12 3 3 2 3 6 4 7 10 9 12 2 3 3 3 3 3 4 4 3 4 8 5 9 7 6 3 4 1 3 6 4 6 9 9 8
Wind_Direction
32 26 24 17 12 5 2 356 353 350 343 344 338 332 332 330 326 321 318 313 309 306 303 302 300 302 311 266 248 282 314 323 62 162 208 196 172 157 174 188 181 214 245 234 252 205 99
29 22 19 11 13 2 0 356 351 348 343 338 339 335 331 326 323 319 315 311 306 301 295 287 284 281 236 261 244 274 300 312 169 167 190 211 197 194 181 202 168 205 230 246 246 160 163
23 21 18 2 4 4 359 354 350 346 346 339 335 334 331 326 322 316 313 308 302 296 289 275 266 254 251 246 261 283 306 295 322 213 178 207 210 169 171 205 204 224 223 234 241 166 161
21 22 13 12 7 360 352 353 347 348 343 339 335 334 331 325 320 316 311 303 299 303 293 261 237 232 258 252 264 270 265 283 253 249 250 218 194 200 236 334 342 175 163 232 208 152 196
26 18 9 5 4 359 355 349 352 346 343 339 337 334 333 327 322 318 311 305 307 316 44 144 151 204 270 290 239 248 217 232 218 197 203 222 136 186 198 148 360 266 202 211 258 182 138
25 13 8 1 0 356 354 354 351 346 344 340 338 335 334 328 324 322 314 312 304 99 117 160 129 247 258 261 308 305 196 214 207 133 126 182 160 173 168 166 209 187 184 197 214 205 121
20 13 11 5 357 355 356 352 350 347 344 342 338 336 334 330 329 328 334 14 11 341 40 236 261 255 283 287 320 281 316 161 227 169 167 191 182 206 207 206 172 173 175 216 212 187 126
21 16 11 4 1 358 354 352 350 347 344 341 339 336 334 331 329 325 347 61 58 256 299 259 256 254 257 271 294 281 238 160 171 185 143 134 215 205 175 172 205 221 215 237 250 161 103
22 15 13 8 3 357 353 349 349 347 344 340 339 335 335 328 326 27 321 144 276 321 287 289 248 259 269 150 223 273 155 220 160 155 190 215 239 187 204 174 186 215 225 210 201 115 46
18 14 10 5 2 357 353 349 347 347 343 339 337 335 332 329 41 323 308 283 331 272 303 279 327 299 317 238 259 213 200 165 245 203 181 232 247 189 178 201 184 210 183 206 248 225 165
17 10 8 5 1 357 353 351 348 346 343 339 334 333 330 330 262 323 255 342 312 53 19 327 334 320 322 202 283 344 184 111 201 235 160 235 185 174 213 206 191 209 150 194 227 196 144
16 8 6 4 2 357 355 352 349 345 341 339 333 330 334 81 246 240 329 309 64 45 283 340 325 324 334 349 327 331 215 176 171 213 274 218 249 176 196 181 174 189 127 184 108 128 226
15 10 7 5 2 359 356 353 349 346 341 338 332 329 331 127 271 342 338 36 34 95 313 343 328 326 314 341 0 342 307 209 160 154 224 201 251 237 109 196 166 190 139 170 167 100 228
12 10 9 7 2 1 357 353 350 345 341 338 332 333 308 227 293 319 46 52 64 280 301 326 325 310 345 6 356 339 350 17 20 359 167 187 258 193 200 186 183 204 187 164 163 187 214
11 10 9 8 2 2 359 355 351 347 343 340 336 346 358 330 331 51 66 53 212 320 320 319 333 328 353 355 329 351 2 9 28 358 2 194 238 245 193 182 187 200 194 192 114 2 95
11 12 9 9 3 4 0 356 353 349 346 348 44 14 353 335 340 49 64 32 346 356 330 323 2 3 345 336 340 358 326 30 346 344 311 285 269 213 249 166 219 172 173 164 21 150 183
11 13 9 11 6 8 3 358 354 351 349 350 45 49 342 338 37 40 76 321 335 352 7 359 340 0 338 339 319 327 14 352 7 333 328 309 258 285 134 190 172 150 185 133 121 140 154
12 12 11 12 10 11 6 2 357 354 351 37 56 52 317 347 46 18 23 333 8 355 355 2 22 62 344 320 314 359 7 337 319 330 346 314 311 243 213 179 130 166 169 131 140 240 90
12 12 12 13 12 14 9 5 360 357 5 27 64 331 328 24 58 350 323 16 352 360 10 2 11 354 339 347 325 34 4 316 341 340 349 343 307 315 186 1 31 182 204 123 108 90 186
13 15 15 13 14 17 12 9 3 357 3 75 67 24 336 27 107 312 344 2 359 354 352 1 9 343 344 326 9 340 345 339 319 316 339 348 256 339 248 240 174 199 154 166 126 119 154
14 16 17 15 16 18 17 13 8 5 357 80 31 328 188 337 347 352 17 355 359 1 348 3 343 357 341 305 340 346 333 329 315 338 356 19 298 327 281 276 265 142 159 164 134 158 149
14 14 15 16 18 19 18 15 12 10 7 68 79 31 353 303 310 343 7 3 349 348 315 345 340 328 321 313 333 308 307 321 279 318 353 1 303 322 284 348 326 80 43 118 56 30 115
14 13 15 16 19 20 20 15 14 20 23 66 335 33 60 317 334 359 339 342 335 331 299 321 320 319 309 319 306 283 272 257 255 278 319 301 316 340 310 341 319 31 346 73 97 41 343
8 14 13 15 19 20 18 14 13 17 45 101 347 54 56 310 339 335 317 329 329 317 305 304 314 314 290 305 294 262 258 252 242 242 218 270 319 302 285 314 95 127 19 59 85 55 34
359 11 8 11 18 16 15 12 12 11 21 70 315 18 34 313 298 301 330 327 314 312 308 289 316 304 301 292 303 318 329 322 245 214 202 206 243 291 305 49 122 41 13 358 4 53 20
343 358 4 5 14 12 11 9 12 7 13 59 323 304 66 316 272 315 323 319 321 333 326 298 320 317 319 317 314 326 338 310 342 67 142 164 245 354 329 100 174 47 327 314 306 147 2
313 341 354 359 9 9 5 5 8 4 3 21 270 337 34 299 281 3 282 303 320 297 301 296 336 332 351 342 338 347 353 325 27 25 335 130 109 157 329 15 73 339 329 314 158 335 332
312 313 340 355 1 3 360 360 2 358 353 9 284 260 328 255 282 256 268 293 294 249 303 302 347 350 337 11 353 342 335 352 342 355 349 43 323 44 6 34 48 356 6 42 322 304 325
328 298 321 347 352 356 355 356 356 353 349 5 334 292 221 237 249 260 254 249 214 230 170 314 227 292 234 353 344 316 330 327 330 7 350 37 351 47 66 24 331 340 348 304 298 312 330